• In Portugal
  • List of Countries
  • For 7 days
  • Water Temperature
  • Satellite Maps
  • Weather Map
  • Weather Widgets
  • user-avatar
    Login

    Hourly Weather Biskira

    Today, 23 April, Monday

    Time Temperature Precipitation Wind Pressure Humidity
    00:00 +27°C° 0 mm 1 mps 753 mmHg 33%
    01:00 +26°C° 0 mm 1 mps 753 mmHg 34%
    02:00 +26°C° 0 mm 1 mps 752 mmHg 35%
    03:00 +25°C° 0 mm 1 mps 752 mmHg 36%
    04:00 +25°C° 0 mm 1 mps 752 mmHg 36%
    05:00 +25°C° 0 mm 1 mps 752 mmHg 36%
    06:00 +24°C° 0 mm 0 mps 753 mmHg 35%
    07:00 +27°C° 0 mm 1 mps 753 mmHg 31%
    08:00 +29°C° 0 mm 1 mps 753 mmHg 27%
    09:00 +31°C° 0 mm 1 mps 753 mmHg 23%
    10:00 +32°C° 0 mm 2 mps 753 mmHg 21%
    11:00 +32°C° 0 mm 2 mps 753 mmHg 20%
    12:00 +34°C° 0 mm 3 mps 752 mmHg 19%
    13:00 +35°C° 0 mm 3 mps 752 mmHg 18%
    14:00 +35°C° 0 mm 3 mps 751 mmHg 17%
    15:00 +36°C° 0 mm 3 mps 751 mmHg 16%
    16:00 +35°C° 0 mm 3 mps 751 mmHg 17%
    17:00 +35°C° 0 mm 3 mps 751 mmHg 17%
    18:00 +34°C° 0 mm 3 mps 751 mmHg 18%
    19:00 +33°C° 0 mm 3 mps 752 mmHg 19%
    20:00 +31°C° 0 mm 3 mps 752 mmHg 21%
    21:00 +30°C° 0 mm 3 mps 753 mmHg 22%
    22:00 +30°C° 0 mm 3 mps 753 mmHg 24%
    23:00 +29°C° 0 mm 3 mps 753 mmHg 25%

    Tomorrow, 24 April, Tuesday

    Time Temperature Precipitation Wind Pressure Humidity
    00:00 +28°C° 0 mm 4 mps 753 mmHg 26%
    01:00 +27°C° 0 mm 4 mps 752 mmHg 31%
    02:00 +27°C° 0 mm 4 mps 752 mmHg 35%
    03:00 +26°C° 0 mm 5 mps 752 mmHg 40%
    04:00 +25°C° 0 mm 5 mps 753 mmHg 41%
    05:00 +25°C° 0 mm 4 mps 753 mmHg 43%
    06:00 +25°C° 0 mm 4 mps 753 mmHg 45%
    07:00 +26°C° 0 mm 5 mps 754 mmHg 40%
    08:00 +28°C° 0 mm 6 mps 754 mmHg 36%
    09:00 +29°C° 0 mm 6 mps 754 mmHg 31%
    10:00 +30°C° 0 mm 6 mps 754 mmHg 28%
    11:00 +32°C° 0 mm 7 mps 753 mmHg 25%
    12:00 +34°C° 0 mm 7 mps 753 mmHg 22%
    13:00 +34°C° 0 mm 7 mps 753 mmHg 21%
    14:00 +34°C° 0 mm 7 mps 752 mmHg 20%
    15:00 +35°C° 0 mm 7 mps 751 mmHg 19%
    16:00 +34°C° 0 mm 6 mps 751 mmHg 20%
    17:00 +33°C° 0 mm 6 mps 751 mmHg 21%
    18:00 +33°C° 0 mm 5 mps 751 mmHg 23%
    19:00 +32°C° 0 mm 5 mps 751 mmHg 24%
    20:00 +30°C° 0 mm 5 mps 751 mmHg 25%
    21:00 +29°C° 0 mm 5 mps 751 mmHg 26%
    22:00 +29°C° 0 mm 5 mps 751 mmHg 27%
    23:00 +29°C° 0 mm 5 mps 751 mmHg 28%

    Day after tomorrow, 25 April, Wednesday

    Time Temperature Precipitation Wind Pressure Humidity
    00:00 +28°C° 0 mm 5 mps 751 mmHg 28%
    01:00 +28°C° 0 mm 5 mps 751 mmHg 29%
    02:00 +27°C° 0 mm 5 mps 750 mmHg 31%
    03:00 +27°C° 0 mm 6 mps 750 mmHg 32%
    04:00 +27°C° 0.1 mm 6 mps 750 mmHg 32%
    05:00 +26°C° 0.1 mm 5 mps 750 mmHg 33%
    06:00 +26°C° 0.1 mm 5 mps 750 mmHg 33%
    07:00 +28°C° 0.1 mm 6 mps 750 mmHg 30%
    08:00 +29°C° 0.1 mm 7 mps 751 mmHg 27%
    09:00 +30°C° 0.1 mm 7 mps 751 mmHg 24%
    10:00 +32°C° 0.2 mm 7 mps 750 mmHg 24%
    11:00 +33°C° 0.2 mm 7 mps 750 mmHg 24%
    12:00 +34°C° 0.2 mm 7 mps 750 mmHg 23%
    13:00 +34°C° 0.2 mm 7 mps 749 mmHg 23%
    14:00 +34°C° 0.2 mm 6 mps 748 mmHg 23%
    15:00 +35°C° 0.2 mm 6 mps 747 mmHg 23%
    16:00 +34°C° 0 mm 7 mps 747 mmHg 23%
    17:00 +34°C° 0 mm 7 mps 746 mmHg 24%
    18:00 +34°C° 0 mm 8 mps 746 mmHg 24%
    19:00 +33°C° 0 mm 8 mps 746 mmHg 25%
    20:00 +32°C° 0 mm 8 mps 746 mmHg 27%
    21:00 +31°C° 0 mm 8 mps 746 mmHg 28%
    22:00 +29°C° 0.1 mm 8 mps 746 mmHg 29%
    23:00 +29°C° 0.1 mm 7 mps 746 mmHg 30%

    26 April, Thursday

    Time Temperature Precipitation Wind Pressure Humidity
    00:00 +28°C° 0.1 mm 7 mps 745 mmHg 31%
    01:00 +27°C° 0 mm 6 mps 745 mmHg 32%
    02:00 +27°C° 0 mm 6 mps 745 mmHg 33%
    03:00 +26°C° 0 mm 6 mps 744 mmHg 34%
    04:00 +26°C° 0 mm 5 mps 744 mmHg 35%
    05:00 +26°C° 0 mm 4 mps 744 mmHg 36%
    06:00 +25°C° 0 mm 4 mps 744 mmHg 38%
    07:00 +27°C° 0 mm 4 mps 744 mmHg 35%
    08:00 +28°C° 0 mm 5 mps 744 mmHg 32%
    09:00 +29°C° 0 mm 6 mps 744 mmHg 29%
    10:00 +32°C° 0 mm 6 mps 743 mmHg 26%
    11:00 +33°C° 0 mm 6 mps 743 mmHg 22%
    12:00 +34°C° 0 mm 6 mps 743 mmHg 19%
    13:00 +34°C° 0 mm 5 mps 742 mmHg 17%
    14:00 +35°C° 0 mm 4 mps 742 mmHg 16%
    15:00 +35°C° 0 mm 3 mps 741 mmHg 14%
    16:00 +34°C° 0 mm 5 mps 741 mmHg 19%
    17:00 +33°C° 0 mm 6 mps 742 mmHg 23%
    18:00 +32°C° 0 mm 8 mps 742 mmHg 28%
    19:00 +31°C° 0.1 mm 8 mps 743 mmHg 33%
    20:00 +28°C° 0.1 mm 8 mps 743 mmHg 38%
    21:00 +27°C° 0.1 mm 9 mps 744 mmHg 43%
    22:00 +26°C° 0 mm 8 mps 744 mmHg 46%
    23:00 +26°C° 0 mm 8 mps 744 mmHg 49%

    27 April, Friday

    Time Temperature Precipitation Wind Pressure Humidity
    00:00 +24°C° 0 mm 8 mps 744 mmHg 52%
    01:00 +23°C° 0 mm 8 mps 744 mmHg 54%
    02:00 +23°C° 0 mm 7 mps 743 mmHg 55%
    03:00 +23°C° 0 mm 7 mps 743 mmHg 57%
    04:00 +23°C° 0 mm 7 mps 743 mmHg 56%
    05:00 +23°C° 0 mm 7 mps 744 mmHg 55%
    06:00 +23°C° 0 mm 7 mps 744 mmHg 55%
    07:00 +24°C° 0 mm 6 mps 744 mmHg 50%
    08:00 +26°C° 0 mm 6 mps 745 mmHg 45%
    09:00 +27°C° 0 mm 6 mps 745 mmHg 41%
    10:00 +28°C° 0 mm 5 mps 745 mmHg 38%
    11:00 +29°C° 0 mm 5 mps 745 mmHg 36%
    12:00 +29°C° 0 mm 4 mps 745 mmHg 33%
    13:00 +30°C° 0 mm 4 mps 745 mmHg 32%
    14:00 +30°C° 0 mm 4 mps 745 mmHg 30%
    15:00 +32°C° 0 mm 4 mps 745 mmHg 29%
    16:00 +30°C° 0 mm 5 mps 745 mmHg 31%
    17:00 +30°C° 0 mm 5 mps 745 mmHg 32%
    18:00 +29°C° 0 mm 5 mps 746 mmHg 34%
    19:00 +28°C° 0 mm 5 mps 747 mmHg 37%
    20:00 +27°C° 0 mm 5 mps 747 mmHg 40%
    21:00 +26°C° 0 mm 5 mps 748 mmHg 42%
    22:00 +26°C° 0 mm 4 mps 748 mmHg 43%
    23:00 +25°C° 0 mm 3 mps 748 mmHg 44%

    28 April, Saturday

    Time Temperature Precipitation Wind Pressure Humidity
    00:00 +24°C° 0 mm 3 mps 748 mmHg 44%
    01:00 +24°C° 0 mm 2 mps 748 mmHg 45%
    02:00 +23°C° 0 mm 2 mps 748 mmHg 46%
    03:00 +23°C° 0 mm 2 mps 748 mmHg 47%
    04:00 +23°C° 0 mm 2 mps 748 mmHg 47%
    05:00 +23°C° 0 mm 2 mps 748 mmHg 46%
    06:00 +23°C° 0 mm 2 mps 748 mmHg 46%
    07:00 +24°C° 0 mm 2 mps 749 mmHg 43%
    08:00 +25°C° 0 mm 3 mps 749 mmHg 41%
    09:00 +26°C° 0 mm 3 mps 749 mmHg 38%
    10:00 +27°C° 0 mm 3 mps 749 mmHg 36%
    11:00 +28°C° 0 mm 3 mps 748 mmHg 34%
    12:00 +29°C° 0 mm 3 mps 748 mmHg 32%
    13:00 +29°C° 0 mm 3 mps 747 mmHg 31%
    14:00 +30°C° 0 mm 3 mps 747 mmHg 29%
    15:00 +30°C° 0 mm 3 mps 747 mmHg 27%
    16:00 +30°C° 0 mm 3 mps 747 mmHg 28%
    17:00 +30°C° 0 mm 2 mps 747 mmHg 28%
    18:00 +30°C° 0 mm 2 mps 747 mmHg 28%
    19:00 +29°C° 0 mm 2 mps 747 mmHg 29%
    20:00 +29°C° 0 mm 2 mps 748 mmHg 31%
    21:00 +29°C° 0 mm 2 mps 748 mmHg 32%
    22:00 +28°C° 0.1 mm 1 mps 748 mmHg 33%
    23:00 +28°C° 0.1 mm 1 mps 748 mmHg 35%
    Show more